This demonstration page uses our WeatherBlox Daily Observations layout. Learn more.

Left ArrowRight Arrow

39.08367, -84.50855

Hourly Observations for April 6, 2020

Temp ( °F °C ) Dew Point ( °F °C ) Humidity (%) Winds ( mph kmh ) Pressure ( in mb ) Visibility ( mi km ) Precip ( " mm )
12:36 am 00:36 Cloudy 51 10.6 46 7.8 83 83 NE 6 9 30.15 1021 10 16 0.00 0.00
12:53 am 00:53 Cloudy 51 10.6 45 7.2 80 80 NE 6 9 30.14 1021 10 16 0.00 0.00
1:53 am 01:53 Cloudy 51 10.6 45 7.2 80 80 NE 6 9 30.14 1021 10 16 0.00 0.00
2:53 am 02:53 Cloudy 50 10 45 7.2 83 83 ENE 5 7 30.13 1020 10 16 0.00 0.00
3:53 am 03:53 Clear 46 7.8 44 6.7 93 93 Calm 30.12 1020 9 14 0.00 0.00
4:53 am 04:53 Cloudy with Mist and Fog 46 7.8 45 7.2 96 96 Calm 30.12 1020 6 10 0.00 0.00
5:53 am 05:53 Cloudy 47 8.3 45 7.2 93 93 NE 5 7 30.12 1020 8 13 0.00 0.00
6:53 am 06:53 Cloudy 47 8.3 43 6.1 86 86 VRB 5 7 30.13 1020 9 14 0.00 0.00
7:53 am 07:53 Cloudy 47 8.3 43 6.1 86 86 VRB 6 9 30.15 1021 8 13 0.00 0.00
8:53 am 08:53 Cloudy 48 8.9 42 5.6 80 80 VRB 5 7 30.17 1022 8 13 0.00 0.00
9:53 am 09:53 Mostly Cloudy 50 10 43 6.1 77 77 VRB 5 7 30.17 1022 10 16 0.00 0.00
10:53 am 10:53 Mostly Sunny 54 12.2 45 7.2 72 72 VRB 3 6 30.16 1021 10 16 0.00 0.00
11:53 am 11:53 Mostly Cloudy 57 13.9 47 8.3 69 69 Calm 30.14 1021 10 16 0.00 0.00
12:53 pm 12:53 Cloudy 60 15.6 49 9.4 67 67 VRB 7 11 30.12 1020 10 16 0.00 0.00
1:53 pm 13:53 Mostly Sunny 62 16.7 49 9.4 62 62 Calm 30.10 1019 10 16 0.00 0.00
2:53 pm 14:53 Partly Cloudy 65 18.3 50 10 59 59 Calm 30.07 1018 10 16 0.00 0.00
3:53 pm 15:53 Mostly Cloudy 66 18.9 51 10.6 59 59 VRB 6 9 30.05 1018 10 16 0.00 0.00
4:53 pm 16:53 Partly Cloudy 67 19.4 52 11.1 59 59 SSW 6 9 30.03 1017 10 16 0.00 0.00
5:53 pm 17:53 Partly Cloudy 67 19.4 52 11.1 59 59 WSW 8 13 30.01 1016 10 16 0.00 0.00
6:53 pm 18:53 Mostly Cloudy 66 18.9 54 12.2 65 65 WSW 3 6 30.01 1016 10 16 0.00 0.00
7:53 pm 19:53 Mostly Cloudy 65 18.3 51 10.6 61 61 SW 3 6 30.00 1016 10 16 0.00 0.00
8:53 pm 20:53 Clear 60 15.6 53 11.7 78 78 SSW 5 7 30.00 1016 10 16 0.00 0.00
9:53 pm 21:53 Clear 56 13.3 53 11.7 90 90 Calm 30.01 1016 10 16 0.00 0.00
10:53 pm 22:53 Mostly Clear 54 12.2 51 10.6 90 90 Calm 30.02 1017 10 16 0.00 0.00
11:53 pm 23:53 Mostly Clear 53 11.7 51 10.6 93 93 Calm 30.00 1016 10 16 0.00 0.00

Powered by AerisWeather